HVN5563 VVNB-VVTS

Flight info

Callsign HVN5563
Flight time N/A
Altitude 36000
Route NAH Q1 DOVIN
Aircraft A359/H-SDE2E3GHIJ3J4J5LM1ORWXY/LB1D1

Departure

Time 2026-05-08 08:21
Airport Noi Bai International Airport (VVNB)

Arrival

Time N/A
Airport Tan Son Nhat International Airport (VVTS)
Time Latitude Longitude Altitude Speed Heading
2026-05-08 07:56 21.21491 105.80520 54 ft 0 kts 306°
2026-05-08 08:06 21.21490 105.80520 54 ft 0 kts 306°
2026-05-08 08:06 21.21483 105.80531 54 ft 2 kts 305°
2026-05-08 08:06 21.21475 105.80544 54 ft 2 kts 306°
2026-05-08 08:06 21.21465 105.80558 54 ft 2 kts 296°
2026-05-08 08:07 21.21462 105.80574 55 ft 2 kts 267°
2026-05-08 08:07 21.21466 105.80589 55 ft 2 kts 242°
2026-05-08 08:07 21.21475 105.80602 54 ft 2 kts 217°
2026-05-08 08:07 21.21486 105.80608 54 ft 2 kts 195°
2026-05-08 08:08 21.21499 105.80611 54 ft 2 kts 196°
2026-05-08 08:08 21.21515 105.80617 54 ft 2 kts 198°
2026-05-08 08:08 21.21529 105.80621 54 ft 2 kts 197°
2026-05-08 08:08 21.21543 105.80626 54 ft 2 kts 197°
2026-05-08 08:09 21.21557 105.80630 54 ft 2 kts 197°
2026-05-08 08:09 21.21570 105.80635 53 ft 2 kts 197°
2026-05-08 08:09 21.21583 105.80640 53 ft 2 kts 202°
2026-05-08 08:09 21.21598 105.80651 53 ft 2 kts 229°
2026-05-08 08:10 21.21606 105.80663 52 ft 2 kts 248°
2026-05-08 08:10 21.21609 105.80679 52 ft 2 kts 266°
2026-05-08 08:10 21.21609 105.80694 52 ft 1 kts 284°
2026-05-08 08:10 21.21607 105.80699 52 ft 0 kts 290°
2026-05-08 08:14 21.21614 105.80678 52 ft 5 kts 288°
2026-05-08 08:15 21.21628 105.80627 52 ft 10 kts 285°
2026-05-08 08:15 21.21647 105.80556 52 ft 14 kts 286°
2026-05-08 08:15 21.21675 105.80455 51 ft 18 kts 287°
2026-05-08 08:15 21.21708 105.80344 51 ft 21 kts 288°
2026-05-08 08:16 21.21740 105.80236 51 ft 23 kts 286°
2026-05-08 08:16 21.21777 105.80106 50 ft 24 kts 288°
2026-05-08 08:16 21.21816 105.79974 48 ft 24 kts 288°
2026-05-08 08:17 21.21895 105.79703 48 ft 22 kts 288°
2026-05-08 08:17 21.21944 105.79556 48 ft 15 kts 308°
2026-05-08 08:17 21.22046 105.79493 49 ft 14 kts 299°
2026-05-08 08:17 21.22083 105.79377 48 ft 15 kts 289°
2026-05-08 08:18 21.22112 105.79273 48 ft 15 kts 286°
2026-05-08 08:18 21.22145 105.79158 48 ft 18 kts 288°
2026-05-08 08:18 21.22185 105.79021 48 ft 21 kts 287°
2026-05-08 08:18 21.22229 105.78873 48 ft 16 kts 285°
2026-05-08 08:19 21.22253 105.78780 48 ft 14 kts 286°
2026-05-08 08:19 21.22282 105.78683 48 ft 11 kts 288°
2026-05-08 08:19 21.22333 105.78610 48 ft 11 kts 350°
2026-05-08 08:19 21.22417 105.78632 48 ft 12 kts 17°
2026-05-08 08:20 21.22451 105.78698 48 ft 12 kts 107°
2026-05-08 08:20 21.22446 105.78715 48 ft 0 kts 107°
2026-05-08 08:20 21.22446 105.78716 48 ft 0 kts 107°
2026-05-08 08:20 21.22443 105.78725 48 ft 2 kts 107°
2026-05-08 08:21 21.22385 105.78929 48 ft 70 kts 108°
2026-05-08 08:21 21.22105 105.79899 51 ft 162 kts 108°
2026-05-08 08:21 21.21266 105.82724 1774 ft 182 kts 104°
2026-05-08 08:22 21.20914 105.84014 2794 ft 181 kts 104°
2026-05-08 08:22 21.20206 105.86642 3967 ft 201 kts 105°
2026-05-08 08:22 21.19826 105.88029 4242 ft 218 kts 105°
2026-05-08 08:23 21.19365 105.89699 4277 ft 251 kts 105°
2026-05-08 08:23 21.18887 105.91417 4272 ft 266 kts 105°
2026-05-08 08:23 21.18351 105.93327 4263 ft 268 kts 106°
2026-05-08 08:23 21.17841 105.95145 4259 ft 268 kts 105°
2026-05-08 08:24 21.17335 105.96904 4259 ft 268 kts 109°
2026-05-08 08:24 21.16580 105.98327 4245 ft 270 kts 131°
2026-05-08 08:24 21.15241 105.99396 4250 ft 274 kts 155°
2026-05-08 08:24 21.13030 105.99905 4622 ft 283 kts 172°
2026-05-08 08:25 21.10918 106.00190 5535 ft 279 kts 172°
2026-05-08 08:25 21.08947 106.00466 6327 ft 279 kts 172°
2026-05-08 08:25 21.05340 106.00993 7615 ft 282 kts 172°
2026-05-08 08:26 21.03518 106.01266 8237 ft 284 kts 172°
2026-05-08 08:26 21.01676 106.01545 8803 ft 287 kts 172°
2026-05-08 08:26 21.00018 106.01797 9304 ft 289 kts 172°
2026-05-08 08:26 20.98049 106.02097 9888 ft 290 kts 172°
2026-05-08 08:27 20.95820 106.02437 10490 ft 294 kts 172°
2026-05-08 08:27 20.93842 106.02737 10990 ft 298 kts 172°
2026-05-08 08:27 20.91811 106.03047 11495 ft 301 kts 172°
2026-05-08 08:27 20.89913 106.03338 11932 ft 305 kts 171°
2026-05-08 08:28 20.88555 106.03546 12245 ft 308 kts 172°
2026-05-08 08:28 20.86733 106.03826 12645 ft 311 kts 171°
2026-05-08 08:28 20.84812 106.04120 13063 ft 314 kts 171°
2026-05-08 08:29 20.81797 106.04582 13732 ft 318 kts 172°
2026-05-08 08:29 20.80182 106.04829 14074 ft 320 kts 172°
2026-05-08 08:29 20.77216 106.05282 14702 ft 324 kts 172°
2026-05-08 08:29 20.74945 106.05630 15190 ft 326 kts 172°
2026-05-08 08:30 20.70597 106.06295 16030 ft 331 kts 172°
2026-05-08 08:30 20.68958 106.06545 16354 ft 333 kts 172°
2026-05-08 08:31 20.67566 106.06759 16634 ft 334 kts 172°
2026-05-08 08:31 20.64368 106.07247 17230 ft 337 kts 172°
2026-05-08 08:31 20.61553 106.07675 17751 ft 339 kts 172°
2026-05-08 08:32 20.58506 106.08141 18240 ft 343 kts 172°
2026-05-08 08:32 20.56477 106.08466 18579 ft 345 kts 171°
2026-05-08 08:32 20.55285 106.08679 18774 ft 346 kts 171°
2026-05-08 08:32 20.52929 106.09119 19198 ft 346 kts 170°
2026-05-08 08:33 20.50551 106.09572 19634 ft 346 kts 171°
2026-05-08 08:33 20.48180 106.10019 19984 ft 348 kts 171°
2026-05-08 08:33 20.45771 106.10468 20325 ft 351 kts 171°
2026-05-08 08:33 20.43544 106.10881 20635 ft 353 kts 172°
2026-05-08 08:34 20.41199 106.11320 20948 ft 356 kts 170°
2026-05-08 08:34 20.37542 106.12405 21352 ft 364 kts 161°
2026-05-08 08:34 20.37159 106.12560 21373 ft 365 kts 160°
2026-05-08 08:35 20.36242 106.12965 21427 ft 369 kts 158°
2026-05-08 08:35 20.34465 106.13824 21538 ft 375 kts 156°
2026-05-08 08:35 20.30992 106.15576 21739 ft 386 kts 155°
2026-05-08 08:36 20.24268 106.18970 22110 ft 405 kts 156°
2026-05-08 08:36 20.21701 106.20257 22351 ft 409 kts 156°
2026-05-08 08:36 20.19163 106.21527 22633 ft 411 kts 156°
2026-05-08 08:36 20.16526 106.22845 22915 ft 413 kts 156°
2026-05-08 08:37 20.13927 106.24142 23212 ft 414 kts 156°
2026-05-08 08:37 20.11306 106.25450 23510 ft 416 kts 156°
2026-05-08 08:37 20.08663 106.26770 23780 ft 418 kts 156°
2026-05-08 08:37 20.06021 106.28088 24031 ft 420 kts 156°
2026-05-08 08:38 20.03360 106.29414 24303 ft 422 kts 155°
2026-05-08 08:38 20.00688 106.30744 24594 ft 423 kts 155°
2026-05-08 08:38 19.98011 106.32078 24861 ft 425 kts 156°
2026-05-08 08:38 19.95318 106.33418 25094 ft 427 kts 155°
2026-05-08 08:39 19.92644 106.34749 25356 ft 429 kts 155°
2026-05-08 08:39 19.89925 106.36101 25623 ft 430 kts 155°
2026-05-08 08:39 19.87189 106.37460 25868 ft 431 kts 155°
2026-05-08 08:39 19.84458 106.38818 26121 ft 433 kts 155°
2026-05-08 08:40 19.81744 106.40168 26356 ft 434 kts 155°
2026-05-08 08:40 19.79014 106.41523 26586 ft 436 kts 155°
2026-05-08 08:40 19.76238 106.42902 26808 ft 438 kts 155°
2026-05-08 08:40 19.73488 106.44267 27030 ft 439 kts 155°
2026-05-08 08:41 19.70707 106.45647 27229 ft 441 kts 155°
2026-05-08 08:41 19.68268 106.46858 27415 ft 443 kts 155°
2026-05-08 08:41 19.65166 106.48395 27659 ft 444 kts 155°
2026-05-08 08:41 19.62330 106.49802 27880 ft 446 kts 155°
2026-05-08 08:42 19.59519 106.51194 28091 ft 447 kts 155°
2026-05-08 08:42 19.56704 106.52589 28277 ft 449 kts 154°
2026-05-08 08:42 19.53881 106.53986 28468 ft 451 kts 155°
2026-05-08 08:42 19.51023 106.55400 28664 ft 452 kts 154°
2026-05-08 08:43 19.48150 106.56821 28879 ft 453 kts 155°
2026-05-08 08:43 19.45330 106.58216 29095 ft 454 kts 155°
2026-05-08 08:43 19.42434 106.59647 29293 ft 456 kts 154°
2026-05-08 08:43 19.39582 106.61056 29487 ft 457 kts 155°
2026-05-08 08:44 19.36664 106.62499 29683 ft 459 kts 154°
2026-05-08 08:44 19.33800 106.63916 29887 ft 460 kts 154°
2026-05-08 08:44 19.31084 106.65258 30062 ft 461 kts 155°
2026-05-08 08:44 19.27977 106.66791 30265 ft 462 kts 155°
2026-05-08 08:45 19.25077 106.68223 30436 ft 464 kts 155°
2026-05-08 08:45 19.22169 106.69652 30625 ft 465 kts 155°
2026-05-08 08:45 19.19182 106.71069 30805 ft 466 kts 156°
2026-05-08 08:45 19.16228 106.72446 31020 ft 467 kts 156°
2026-05-08 08:46 19.13258 106.73828 31292 ft 466 kts 156°
2026-05-08 08:46 19.10328 106.75194 31574 ft 464 kts 156°
2026-05-08 08:46 19.07344 106.76587 31838 ft 463 kts 156°
2026-05-08 08:46 19.04803 106.77776 32049 ft 463 kts 156°
2026-05-08 08:47 19.01453 106.79343 32360 ft 462 kts 155°
2026-05-08 08:47 19.00391 106.79841 32453 ft 461 kts 155°
2026-05-08 08:48 18.98268 106.80834 32649 ft 461 kts 155°
2026-05-08 08:48 18.93211 106.83203 33142 ft 459 kts 155°
2026-05-08 08:49 18.88769 106.85284 33544 ft 459 kts 155°
2026-05-08 08:49 18.85116 106.86990 33915 ft 457 kts 156°
2026-05-08 08:49 18.81410 106.88717 34243 ft 457 kts 156°